Location: Molveno
(46.1500°N, 10.9667°E)
Time: 16:16:46
(UTC+00:00)

Cosmos 2297 - Pass Details

Date: 05 July 2020
Orbit: 835 x 859 km, 71.0° (Epoch: 10 August)

Event Time Altitude Azimuth Distance (km) Brightness Sun altitude
Rises 22:47:08 0° 333° (NNW) 3,443 8.2 -20.8°
Reaches altitude 10° 22:49:36 10° 333° (NNW) 2,502 7.2 -20.8°
Maximum altitude 22:55:22 86° 245° (WSW) 864 3.6 -20.9°
Enters shadow 22:57:26 42° 159° (SSE) 1,209 4.0 -21.0°
